[[{"header":{"parameterUnit":"m.s-1","parameterCategory":1,"la1":30.2991,"la2":30.254,"lo1":-89.0895,"lo2":-89.0444,"dy":0.0017,"dx":0.0017,"nx":28,"ny":28,"refTime":"2025-03-25T03:00:00:Z","depth":0,"parameterNumber":2,"parameterNumberName":"U-component_of_WINDS"},"data":[0,0,0,0,0,0,0,0,0,0,0,0,0,0,0,0,0,0,0,0,0,0,0,0,0,0,0,0,0,0,0,0,0,0,0,0,0,0,0,0,0,0,0,0,0,0,0,0,0,0,0,0,0,0,0,0,0,0,-1.5011,-1.5012,0,-1.5045,-1.5045,-1.5045,-1.5003,-1.5002,-1.5,-1.4999,-1.5033,-1.5035,-1.5038,0,0,0,0,0,0,0,0,0,0,0,0,0,-1.4913,-1.4915,-1.5011,-1.5012,-1.5012,-1.5044,-1.5045,-1.5045,-1.5004,-1.5002,-1.5,-1.4998,-1.5032,-1.5035,-1.5038,0,0,0,0,0,0,0,0,0,0,0,0,0,-1.4952,-1.4916,-1.5011,-1.4995,-1.4994,-1.5044,-1.5045,-1.5045,-1.5004,-1.5002,-1.5,-1.4997,-1.5031,-1.5035,-1.5038,-1.5106,0,0,-1.5049,-1.505,0,0,0,0,0,0,0,0,-1.495,-1.4956,-1.4997,-1.4997,-1.4995,-1.5018,-1.5023,-1.5066,-1.5005,-1.5,-1.4999,-1.4996,-1.503,-1.5033,-1.5044,-1.5107,-1.5109,-1.5049,-1.5051,-1.5053,-1.5054,0,0,0,0,0,0,0,-1.4947,-1.4954,-1.5024,-1.4998,-1.4997,-1.4987,-1.499,-1.5031,-1.5027,-1.5001,-1.4998,-1.5002,-1.5029,-1.5041,-1.5045,-1.5109,-1.5049,-1.5052,-1.5054,-1.5056,-1.523,-1.5232,0,0,0,0,0,0,-1.4946,-1.4952,-1.5023,-1.5025,-1.4967,-1.4991,-1.4994,-1.5013,-1.5027,-1.5027,-1.5004,-1.5,-1.5036,-1.5041,-1.5046,-1.5126,-1.5053,-1.5056,-1.5058,-1.5227,-1.523,-1.5233,0,0,0,0,0,0,-1.4944,-1.4953,-1.5022,-1.4988,-1.4996,-1.4995,-1.5016,-1.5015,-1.5027,-1.503,-1.5029,-1.5017,-1.5035,-1.5041,-1.5091,-1.5126,-1.5058,-1.5061,-1.5224,-1.5228,-1.5231,-1.5286,0,0,0,0,0,0,-1.4942,-1.4953,-1.4978,-1.4989,-1.4998,-1.5067,-1.5018,-1.5017,-1.5033,-1.5028,-1.5042,-1.5042,-1.5033,-1.5086,-1.5095,-1.513,-1.5063,-1.5221,-1.5226,-1.523,-1.5281,-1.5291,-1.53,0,0,0,0,0,-1.4938,-1.4992,-1.4979,-1.4988,-1.5029,-1.5069,-1.5074,-1.5063,-1.5036,-1.5062,-1.5064,-1.5041,-1.5122,-1.5092,-1.5101,-1.5138,-1.5219,-1.5224,-1.523,-1.5277,-1.5289,-1.53,0,0,0,0,0,0,-1.4984,-1.4993,-1.4979,-1.5038,-1.5053,-1.5061,-1.5093,-1.5077,-1.51,-1.5094,-1.508,-1.5083,-1.5137,-1.5142,-1.5109,-1.5204,-1.5166,-1.5173,-1.5198,-1.521,-1.5219,-1.5216,-1.5066,0,0,0,0,0,-1.5002,-1.5032,-1.5038,-1.5089,-1.5098,-1.5095,-1.5111,-1.5102,-1.5117,-1.5123,-1.5128,-1.5144,-1.5173,-1.5192,-1.5218,-1.5282,-1.5285,-1.5312,-1.5322,-1.533,-1.5336,-1.5371,-1.5383,-1.5252,-1.5251,-1.5251,0,0,-1.5037,-1.5045,-1.5065,-1.5099,-1.5109,-1.5142,-1.51,-1.5136,-1.516,-1.5128,-1.5176,-1.5181,-1.5197,-1.5255,-1.528,-1.5261,-1.5373,-1.5337,-1.5343,-1.5345,-1.5378,-1.539,-1.5401,-1.5255,-1.5255,-1.5254,0,0,-1.5117,-1.5127,-1.5171,-1.5183,-1.52,-1.5197,-1.5208,-1.522,-1.5222,-1.527,-1.5247,-1.5276,-1.5325,-1.5338,-1.5351,-1.5439,-1.542,-1.5448,-1.5497,-1.5531,-1.5541,-1.555,-1.5581,-1.5593,-1.5455,-1.5455,-1.5455,0,-1.5159,-1.5207,-1.5195,-1.5233,-1.5249,-1.5223,-1.5267,-1.5279,-1.5304,-1.5315,-1.5294,-1.5356,-1.5366,-1.5426,-1.5447,-1.5459,-1.5471,-1.5446,-1.5541,-1.555,-1.5558,-1.5587,-1.5599,-1.5459,-1.5458,-1.5458,-1.5458,0,-1.5257,-1.5291,-1.5325,-1.5349,-1.5369,-1.541,-1.5405,-1.5426,-1.5416,-1.5416,-1.5466,-1.5477,-1.5505,-1.5519,-1.5509,-1.5578,-1.5566,-1.5543,-1.5504,-1.5574,-1.5601,-1.5613,-1.5463,-1.5462,-1.5461,-1.546,0,0,-1.5365,-1.5385,-1.5397,-1.5409,-1.5426,-1.5452,-1.5493,-1.5521,-1.554,-1.5558,-1.5592,-1.5636,-1.5615,-1.563,-1.5621,-1.5651,-1.572,-1.5625,-1.5625,-1.5642,-1.5797,-1.5813,-1.5827,-1.5708,-1.571,-1.5712,-1.5796,0,-1.5446,-1.5515,-1.5507,-1.5574,-1.5605,-1.5582,-1.5617,-1.5632,-1.5634,-1.5661,-1.5664,-1.5694,-1.5665,-1.5674,-1.5703,-1.5706,-1.5751,-1.57,-1.5739,-1.574,-1.5734,-1.5841,-1.5858,-1.5936,-1.5806,-1.5808,-1.5809,0,-1.5548,-1.5571,-1.5641,-1.5655,-1.5668,-1.5699,-1.5725,-1.5752,-1.5769,-1.5768,-1.5786,-1.5772,-1.5814,-1.5775,-1.5832,-1.5797,-1.5813,-1.5817,-1.582,-1.5822,-1.5778,-1.5845,-1.5961,-1.5973,-1.5826,-1.5825,-1.5824,0,-1.5619,-1.5668,-1.5716,-1.5727,-1.5744,-1.5767,-1.5776,-1.579,-1.5808,-1.5831,-1.5843,-1.587,-1.5885,-1.5907,-1.5901,-1.5874,-1.5959,-1.592,-1.596,-1.596,-1.5977,-1.5976,-1.6097,-1.599,-1.599,-1.5989,-1.5989,0,-1.5709,-1.5753,-1.5748,-1.5778,-1.5826,-1.5817,-1.5866,-1.5871,-1.5885,-1.5915,-1.5897,-1.5926,-1.5918,-1.5947,-1.5944,-1.5991,-1.5998,-1.5999,-1.5997,-1.6,-1.5999,-1.6009,-1.6003,-1.5993,-1.5992,-1.5991,-1.5991,0,-1.5796,-1.5795,-1.5846,-1.5859,-1.5863,-1.5899,-1.591,-1.5938,-1.5939,-1.5978,-1.5987,-1.5989,-1.6022,-1.602,-1.6057,-1.6055,-1.6113,-1.6105,-1.6107,-1.6105,-1.6145,-1.6141,-1.6274,-1.6291,-1.6175,-1.6176,-1.6177,0,-1.5852,-1.5886,-1.5903,-1.5922,-1.5932,-1.5963,-1.5982,-1.5975,-1.5995,-1.6018,-1.6043,-1.6075,-1.61,-1.6154,-1.6159,-1.6188,-1.618,-1.6225,-1.6184,-1.6186,-1.618,-1.6178,-1.6181,-1.6233,-1.6234,-1.6235,-1.6236,0,-1.5953,-1.5951,-1.5978,-1.6006,-1.6029,-1.605,-1.607,-1.6087,-1.6082,-1.6105,-1.6139,-1.6159,-1.6198,-1.623,-1.6257,-1.6266,-1.6251,-1.6249,-1.626,-1.6262,-1.6261,-1.6262,-1.6128,-1.6246,-1.6245,-1.6244,-1.6244,-1.6243,-1.6025,-1.6054,-1.6071,-1.6102,-1.6117,-1.6136,-1.6163,-1.6168,-1.6196,-1.6227,-1.6222,-1.626,-1.6278,-1.6314,-1.6326,-1.6356,-1.6339,-1.6355,-1.6358,-1.6362,-1.6366,-1.6258,-1.6361,-1.6361,-1.636,-1.636,-1.636,0,-1.6124,-1.6134,-1.6163,-1.6192,-1.6217,-1.6201,-1.6222,-1.6244,-1.6278,-1.6296,-1.6321,-1.6361,-1.6392,-1.64,-1.643,-1.6453,-1.6447,-1.6461,-1.6459,-1.6461,-1.6379,-1.6367,-1.6466,-1.6466,-1.6466,-1.6466,-1.6466,-1.6466,-1.6178,-1.6226,-1.6226,-1.6281,-1.6291,-1.6329,-1.6342,-1.636,-1.6374,-1.6419,-1.6446,-1.6451,-1.6465,-1.6497,-1.6525,-1.6526,-1.6538,-1.6555,-1.6554,-1.6477,-1.6467,-1.6456,-1.6445,-1.6558,-1.6558,-1.6633,-1.6634,-1.6634]},{"header":{"parameterUnit":"m.s-1","parameterCategory":1,"la1":30.2991,"la2":30.254,"lo1":-89.0895,"lo2":-89.0444,"dy":0.0017,"dx":0.0017,"nx":28,"ny":28,"refTime":"2025-03-25T03:00:00:Z","depth":0,"parameterNumber":3,"parameterNumberName":"V-component_of_WINDS"},"data":[0,0,0,0,0,0,0,0,0,0,0,0,0,0,0,0,0,0,0,0,0,0,0,0,0,0,0,0,0,0,0,0,0,0,0,0,0,0,0,0,0,0,0,0,0,0,0,0,0,0,0,0,0,0,0,0,0,0,1.3466,1.3466,0,1.34,1.3399,1.3399,1.3379,1.3379,1.3379,1.338,1.3303,1.33,1.3298,0,0,0,0,0,0,0,0,0,0,0,0,0,1.3569,1.3567,1.3467,1.3466,1.3465,1.34,1.3399,1.3398,1.3379,1.3379,1.338,1.338,1.3304,1.3301,1.3298,0,0,0,0,0,0,0,0,0,0,0,0,0,1.3515,1.3566,1.3467,1.3448,1.3445,1.34,1.3399,1.3398,1.3379,1.3379,1.338,1.338,1.3304,1.3301,1.3297,1.3264,0,0,1.3286,1.3285,0,0,0,0,0,0,0,0,1.3518,1.3511,1.3451,1.3449,1.3446,1.3399,1.3407,1.3353,1.3378,1.3404,1.338,1.338,1.3334,1.3328,1.3314,1.3261,1.3257,1.3286,1.3284,1.3282,1.3281,0,0,0,0,0,0,0,1.3522,1.3514,1.344,1.345,1.3447,1.344,1.3433,1.3397,1.3366,1.3401,1.34,1.3393,1.3332,1.3317,1.3312,1.3256,1.3286,1.3283,1.3281,1.3279,1.3172,1.3171,0,0,0,0,0,0,1.353,1.3517,1.3442,1.3438,1.3485,1.3437,1.343,1.3413,1.3366,1.336,1.3392,1.3392,1.3323,1.3316,1.3309,1.3267,1.3282,1.3279,1.3277,1.3173,1.3172,1.3171,0,0,0,0,0,0,1.3532,1.3524,1.3445,1.3477,1.3467,1.3435,1.3417,1.3411,1.3396,1.336,1.3353,1.3383,1.3323,1.3314,1.3276,1.3264,1.3277,1.3274,1.3173,1.3172,1.3171,1.3182,0,0,0,0,0,0,1.3535,1.3525,1.3513,1.3477,1.3465,1.3415,1.3416,1.341,1.3391,1.339,1.3349,1.3343,1.3323,1.3282,1.3272,1.3259,1.3271,1.3174,1.3173,1.3172,1.3182,1.3181,1.318,0,0,0,0,0,1.3539,1.3517,1.3513,1.3504,1.3451,1.3415,1.3407,1.3388,1.3391,1.3378,1.3354,1.3344,1.3267,1.3278,1.3267,1.3253,1.3175,1.3173,1.3172,1.3183,1.3182,1.318,0,0,0,0,0,0,1.3549,1.3512,1.3507,1.3473,1.3448,1.3412,1.3395,1.3387,1.3357,1.3357,1.3331,1.3322,1.3286,1.3265,1.3278,1.3218,1.322,1.3217,1.3232,1.3231,1.323,1.3234,1.3268,0,0,0,0,0,1.3548,1.3524,1.3492,1.3465,1.3453,1.3426,1.341,1.3397,1.3368,1.3356,1.333,1.33,1.3269,1.3249,1.3218,1.318,1.317,1.3165,1.3164,1.3163,1.3159,1.3137,1.3134,1.3166,1.3166,1.3166,0,0,1.3544,1.3521,1.3507,1.3466,1.3445,1.3419,1.3417,1.3389,1.3369,1.3351,1.3315,1.3294,1.3259,1.3221,1.3203,1.3203,1.3149,1.3161,1.3161,1.3157,1.3135,1.3132,1.3129,1.3165,1.3165,1.3165,0,0,1.3523,1.3504,1.348,1.3459,1.3429,1.3411,1.3406,1.3371,1.3358,1.3322,1.3308,1.3282,1.3229,1.3205,1.3185,1.3158,1.3147,1.3148,1.3142,1.312,1.3118,1.3115,1.3104,1.31,1.3145,1.3145,1.3145,0,1.3521,1.3484,1.3467,1.3441,1.3423,1.341,1.3383,1.3363,1.3323,1.3309,1.3311,1.3246,1.3221,1.3177,1.317,1.3155,1.3146,1.3152,1.312,1.3117,1.3115,1.3104,1.31,1.3145,1.3145,1.3145,1.3145,0,1.3482,1.3457,1.344,1.3405,1.3385,1.3359,1.3336,1.3318,1.3307,1.3289,1.3251,1.3222,1.3185,1.3174,1.3162,1.3128,1.3129,1.3126,1.3127,1.3112,1.3101,1.3097,1.3146,1.3146,1.3146,1.3146,0,0,1.3463,1.3422,1.3416,1.34,1.3366,1.3344,1.3317,1.3284,1.3268,1.3241,1.3216,1.3173,1.317,1.3148,1.3133,1.3115,1.3093,1.3113,1.3112,1.311,1.3052,1.3054,1.305,1.3087,1.3086,1.3085,1.3055,0,1.3437,1.3391,1.3376,1.3336,1.3312,1.3299,1.3275,1.325,1.3233,1.3207,1.3187,1.3157,1.3156,1.3143,1.3124,1.31,1.3081,1.3102,1.306,1.3059,1.3068,1.3044,1.3045,1.3018,1.3051,1.305,1.3049,0,1.34,1.3376,1.3335,1.3305,1.3294,1.3273,1.3242,1.3219,1.319,1.3178,1.3155,1.3142,1.3111,1.3116,1.3071,1.3086,1.3068,1.3054,1.3052,1.3046,1.3052,1.3036,1.3009,1.3004,1.3043,1.3043,1.3044,0,1.339,1.3347,1.3317,1.3303,1.3268,1.3253,1.3237,1.3209,1.3191,1.3163,1.315,1.3118,1.3099,1.3074,1.3051,1.3058,1.3008,1.3012,1.2995,1.2996,1.2983,1.2984,1.2952,1.2975,1.2975,1.2975,1.2975,0,1.3361,1.3336,1.3312,1.3293,1.3264,1.3246,1.3217,1.32,1.3175,1.3151,1.3138,1.3115,1.3088,1.306,1.3043,1.3007,1.2999,1.2987,1.2982,1.2987,1.2989,1.2974,1.2974,1.2974,1.2974,1.2974,1.2974,0,1.3343,1.3326,1.3292,1.3263,1.3255,1.3235,1.3208,1.3188,1.3171,1.314,1.3132,1.3104,1.3072,1.3048,1.3005,1.2993,1.2955,1.295,1.2965,1.2963,1.2947,1.2948,1.2903,1.2895,1.2925,1.2925,1.2924,0,1.3326,1.3306,1.3276,1.3261,1.3245,1.322,1.3202,1.3184,1.3165,1.3132,1.3115,1.3083,1.3056,1.3004,1.2978,1.2944,1.2938,1.2925,1.2933,1.2939,1.2936,1.2937,1.2934,1.2923,1.2923,1.2922,1.2922,0,1.3295,1.3288,1.3265,1.3238,1.3218,1.3196,1.3172,1.316,1.3137,1.3116,1.3085,1.3064,1.3022,1.2989,1.2954,1.2934,1.2923,1.2921,1.2915,1.2919,1.2928,1.2921,1.296,1.2921,1.2921,1.2921,1.2921,1.2921,1.3276,1.3258,1.3235,1.3208,1.319,1.3169,1.315,1.3132,1.3106,1.3073,1.3063,1.303,1.3001,1.2953,1.2933,1.2905,1.2905,1.2897,1.2894,1.2892,1.2892,1.2934,1.2898,1.2898,1.2898,1.2898,1.2898,0,1.3244,1.3229,1.3205,1.3175,1.3154,1.3151,1.3125,1.3107,1.3079,1.3055,1.303,1.2993,1.2961,1.2934,1.2901,1.2883,1.2877,1.2875,1.2875,1.287,1.2894,1.2902,1.288,1.288,1.288,1.288,1.288,1.288,1.3224,1.3195,1.3185,1.3146,1.313,1.31,1.3086,1.3065,1.3046,1.3007,1.2982,1.2966,1.294,1.2904,1.2874,1.2867,1.2854,1.2852,1.2844,1.2866,1.2868,1.287,1.2877,1.285,1.285,1.2821,1.2821,1.2821]}]]